Flag for Germany Weather past 2 weeks in Neuburg an der Donau, Bavaria, Germany

Now
43 °F

Quite cool.


Feels Like: 43 °F
Forecast: 36 / 65 °F
Wind: 1 mph from North

Location: Neuburg / Donau

Current Time: May 28, 2015 at 1:07:59 AM

Latest Report: May 28, 2015 at 12:20 AM


Visibility: N/A

Pressure: 30.18 "Hg

Humidity: 87%

Dew point: 39 °F

Location of Neuburg an der DonauLocation

Historic Weather in Neuburg an der Donau — Graph

°F

Neuburg an der Donau temperature yesterday

Maximum temperature yesterday: 57 °F (at 5:20 PM)
Minimum temperature yesterday: 45 °F (at 1:20 AM)
Average temperature yesterday: 50 °F

Past Weeks' High & Low Weather Summary

 TemperatureHumidityPressure
High73 °F (May 18, 6:20 PM)100% (May 16, 5:20 AM)30.30 "Hg (May 16, 5:20 AM)
Low41 °F (May 16, 6:20 AM)36% (May 22, 6:20 PM)29.74 "Hg (May 18, 6:20 PM)
Average56 °F72%30.04 "Hg
* Reported May 12 11:20 PM — May 27 11:20 PM, Neuburg an der Donau, Weather by CustomWeather, © 2015

Note: Actual official high and low records may vary slightly from our data, if they occured in-between our weather recording intervals... More about our weather records

Advertising

Neuburg an der Donau weather history for previous 24 hours

 ConditionsComfort  
Time TempWeatherWind HumidityBarometerVisibility
11:20 PM
Wed, May 27
45 °FQuite cool.1 mph76%30.18 "HgN/A
10:20 PM48 °FCool.2 mph66%30.18 "HgN/A
9:20 PM50 °FCool.3 mph62%30.18 "HgN/A
8:20 PM54 °FCool.7 mph54%30.18 "HgN/A
7:20 PM55 °FRefreshingly cool.7 mph51%30.18 "HgN/A
6:20 PM55 °FRefreshingly cool.8 mph51%30.18 "HgN/A
5:20 PM57 °FPartly sunny.10 mph48%30.18 "HgN/A
4:20 PM55 °FPartly sunny.13 mph51%30.21 "HgN/A
3:20 PM55 °FPartly sunny.9 mph55%30.18 "HgN/A
2:20 PM54 °FPartly sunny.10 mph63%30.21 "HgN/A
1:20 PM54 °FPartly sunny.12 mph58%30.21 "HgN/A
12:20 PM54 °FPartly sunny.12 mph54%30.21 "HgN/A
11:20 AM52 °FPartly sunny.9 mph58%30.21 "HgN/A
10:20 AM52 °FBroken clouds.6 mph58%30.21 "HgN/A
9:20 AM52 °FScattered clouds.2 mph67%30.21 "HgN/A
8:20 AM48 °FPartly sunny.3 mph76%30.21 "HgN/A
7:20 AM48 °FPartly sunny.5 mph76%30.21 "HgN/A
6:20 AM46 °FPassing clouds.6 mph82%30.18 "HgN/A
5:20 AM46 °FCool.5 mph82%30.18 "HgN/A
4:20 AM46 °FCool.5 mph82%30.15 "HgN/A
3:20 AM46 °FCool.5 mph82%30.15 "HgN/A
2:20 AM46 °FCool.7 mph82%30.15 "HgN/A
1:20 AM45 °FQuite cool.6 mph87%30.15 "HgN/A
Weather by CustomWeather, © 2015

See weather overviewHow to use our weather pages